Location: Ravencliff
(37.6982°N, 81.4812°W)
Time: 03:27:25
(UTC+00:00)

Envisat - Visible Passes

Search period start: 15 April 2026 00:00
Search period end: 25 April 2026 00:00
Orbit: 761 x 762 km, 98.4° (Epoch: 14 April)

Date Brightness Start Highest point End Pass type
(mag) Time Alt. Az. Time Alt. Az. Time Alt. Az.
15 Apr 3.3 08:04:24 10° NNE 08:08:38 63° NNE 08:08:38 63° NNE visible
15 Apr 5.0 09:46:50 10° NW 09:47:37 10° WNW 09:48:22 10° WNW visible
16 Apr 4.4 07:26:55 10° NNE 07:30:29 33° ENE 07:30:29 33° ENE visible
16 Apr 4.2 09:06:18 10° NNW 09:10:17 24° WNW 09:10:37 24° WNW visible
17 Apr 5.5 06:50:32 10° NE 06:52:20 15° ENE 06:52:20 15° ENE visible
17 Apr 3.2 08:27:48 10° N 08:32:27 53° WNW 08:32:27 53° WNW visible
18 Apr 3.5 07:49:57 10° NNE 07:54:18 57° ENE 07:54:18 57° ENE visible
18 Apr 4.8 09:30:39 10° NNW 09:33:19 14° WNW 09:34:25 14° WNW visible
19 Apr 4.8 07:12:46 10° NE 07:16:09 25° ENE 07:16:09 25° ENE visible
19 Apr 3.8 08:51:27 10° N 08:55:55 32° WNW 08:56:16 32° WNW visible
20 Apr 5.7 06:37:42 10° ENE 06:37:59 10° E 06:37:59 10° E visible
20 Apr 2.9 08:13:13 10° N 08:18:06 74° NW 08:18:06 74° NW visible
21 Apr 3.9 07:35:35 10° NNE 07:39:57 44° E 07:39:57 44° E visible
21 Apr 4.4 09:15:26 10° NNW 09:19:00 20° WNW 09:20:04 18° W visible
22 Apr 5.1 06:58:50 10° NE 07:01:47 19° E 07:01:47 19° E visible
22 Apr 3.4 08:36:43 10° N 08:41:30 44° WNW 08:41:55 43° W visible
23 Apr 2.9 07:58:43 10° NNE 08:03:45 79° E 08:03:45 79° E visible
23 Apr 5.0 09:40:14 10° NW 09:42:01 12° WNW 09:43:47 10° W visible
24 Apr 4.3 07:21:21 10° NNE 07:25:35 32° E 07:25:35 32° E visible
24 Apr 4.1 09:00:28 10° NNW 09:04:39 26° WNW 09:05:43 25° W visible
